Wind_Speed
87 86 85 84 83 82 82 81 81 80 80 79 78 76 74 72 70 69 67 66 65 65 64 63 63 63 63 63 63 63 62 62 63 63 64 64 65 65 66 66 66 66 67 67 67 67 67 68 68 68 68 69 69 69 69 69 69 69 69 69 69 69 70 72 75 78 81 82 82 82 82 83 84 85 87 88 90 92 95 95 93 90 87 87 89 90
86 85 84 83 82 82 82 81 80 79 79 77 75 73 71 69 67 66 65 64 63 63 63 63 63 62 62 62 62 62 62 62 62 63 63 64 64 65 65 65 65 66 66 66 66 66 66 66 67 67 67 68 68 69 69 69 70 70 70 70 70 70 70 71 73 76 79 81 82 82 82 82 83 83 84 85 87 89 92 94 94 92 88 87 87 88
84 84 84 83 83 82 82 81 80 79 77 75 72 70 67 66 65 64 63 63 62 62 62 62 62 62 62 62 62 61 61 61 62 62 62 63 63 63 64 64 64 64 64 64 64 64 65 65 65 65 66 66 67 68 68 69 70 70 71 71 70 70 70 71 72 74 77 80 81 82 81 81 81 82 82 83 84 85 88 91 94 94 92 89 87 86
83 83 84 84 83 83 82 80 79 77 75 72 69 67 65 63 62 62 62 62 62 62 61 61 61 61 61 61 60 60 60 60 61 61 61 62 62 62 62 62 62 62 62 62 62 62 63 63 63 64 64 65 66 67 67 68 69 70 70 70 70 71 71 71 71 73 75 78 81 81 81 80 80 80 80 81 81 82 83 87 91 94 95 93 89 87
83 83 84 84 84 83 81 79 77 75 72 69 67 64 63 62 61 61 61 61 61 61 61 60 60 60 60 59 59 59 59 59 59 60 60 60 60 60 60 60 59 59 59 60 60 61 61 62 62 62 63 64 64 65 66 67 67 68 69 69 70 70 71 71 71 72 74 77 80 81 81 80 79 79 79 78 78 79 80 83 86 90 94 94 92 89
83 83 83 83 83 82 80 77 75 72 69 67 65 63 61 60 60 60 60 60 60 60 60 59 59 58 58 58 57 57 57 57 58 58 58 58 58 58 58 58 58 57 58 58 59 59 60 61 61 61 62 62 62 62 63 64 65 66 67 68 69 70 70 71 71 72 73 76 78 80 80 80 79 78 77 77 77 77 78 79 82 85 90 93 93 91
83 83 82 82 81 79 77 74 71 69 67 65 64 62 61 60 59 58 58 58 59 59 58 58 57 56 56 55 55 55 55 55 56 56 56 56 56 57 56 56 56 56 56 57 58 58 59 60 60 60 59 59 59 59 60 61 62 63 64 65 67 68 69 70 71 71 73 75 78 79 80 80 79 78 77 77 76 76 76 76 77 80 84 88 91 91
84 83 82 80 79 77 74 71 68 66 65 64 63 62 61 59 58 57 57 57 57 57 57 56 55 54 53 53 53 53 53 54 54 54 54 54 54 55 55 55 55 55 55 56 56 57 58 58 58 57 56 56 56 56 57 58 59 60 61 62 64 66 67 69 70 71 72 74 77 79 80 80 79 78 78 77 76 75 74 73 73 75 78 82 86 88
84 83 81 78 76 73 71 69 67 64 63 62 62 61 60 59 58 57 56 55 55 55 55 54 54 52 51 51 51 51 52 52 52 52 52 52 53 53 53 54 54 54 54 54 55 55 56 56 55 55 54 54 54 54 55 56 56 57 57 58 60 62 64 66 68 70 71 74 76 79 81 81 80 79 78 76 75 73 71 70 70 71 73 77 80 83
84 82 79 76 73 70 69 67 66 63 62 61 60 60 59 59 58 58 56 55 54 53 53 53 53 52 50 49 49 49 50 50 50 50 50 51 51 52 52 53 53 52 52 52 53 53 53 53 53 52 52 52 52 53 53 54 54 53 53 54 55 57 60 63 65 68 70 73 76 79 81 81 80 79 77 75 73 70 68 67 66 67 69 71 75 78
82 79 76 73 70 68 66 65 64 62 61 60 59 58 57 57 58 58 57 55 53 52 52 52 51 51 50 49 48 48 49 49 49 49 48 49 49 50 51 51 51 51 51 51 50 50 50 50 50 50 50 50 50 50 50 51 50 50 49 50 51 53 56 59 62 65 69 72 76 79 81 81 80 78 75 73 70 68 66 65 64 64 65 67 69 72
79 76 74 71 68 66 65 63 62 60 59 58 57 57 56 56 56 56 57 55 54 52 51 50 50 49 49 48 48 48 48 48 48 48 47 47 47 48 49 49 49 49 49 48 48 48 48 48 48 48 48 48 48 48 48 47 47 46 46 46 47 49 52 55 58 62 67 72 76 78 80 80 79 76 74 71 69 66 64 63 62 62 62 63 64 67
76 74 71 69 67 65 63 62 60 59 57 56 56 56 56 55 55 55 55 55 54 52 51 50 49 47 47 46 47 47 47 48 47 47 45 45 45 45 46 46 46 46 46 45 45 45 45 46 46 46 46 45 45 45 45 45 44 43 43 43 44 46 48 51 55 59 65 70 74 78 79 79 78 75 73 70 68 65 63 62 61 61 61 61 61 62
73 72 70 68 66 64 62 60 59 57 56 55 55 55 55 55 55 55 55 54 53 52 51 50 49 47 45 44 44 45 46 46 46 45 43 42 42 43 44 44 44 43 43 42 42 42 43 43 43 43 43 42 42 42 42 42 42 41 41 41 41 43 45 49 53 57 62 68 73 77 78 78 77 75 72 70 67 65 63 62 61 61 60 59 59 59
71 70 69 67 65 62 61 59 58 56 55 54 54 54 55 54 54 54 54 54 53 51 50 49 48 45 43 42 42 43 44 45 44 43 41 39 38 39 41 41 41 40 40 39 39 39 39 40 40 39 39 39 39 39 40 40 40 39 39 40 40 42 44 47 51 56 61 66 71 75 77 77 76 74 72 69 67 65 64 63 62 61 60 59 58 57
68 67 66 65 63 61 59 58 57 56 55 54 54 54 54 54 54 54 54 53 52 51 50 49 47 44 41 39 39 40 42 43 43 41 38 36 35 36 38 39 39 38 37 37 36 36 36 36 36 36 36 36 36 36 37 37 38 38 38 39 40 42 44 47 51 55 59 65 69 73 75 76 75 74 72 69 67 66 64 63 61 60 59 57 56 55
65 64 63 62 61 60 58 57 56 55 55 55 55 55 54 54 54 53 53 53 52 51 49 47 46 43 39 36 35 36 38 40 40 39 37 34 32 33 35 37 37 36 35 34 34 34 34 34 33 33 33 33 33 34 34 35 36 37 38 39 40 42 43 46 49 53 57 63 67 71 74 75 74 73 71 69 67 65 64 62 61 59 58 56 55 54
63 61 61 60 59 58 57 56 55 55 55 56 55 55 55 54 53 53 52 52 51 49 47 45 43 41 38 34 32 32 35 37 38 37 35 31 30 30 32 34 35 34 33 32 32 31 31 31 31 30 30 30 31 31 32 33 34 35 36 38 39 40 42 44 46 50 55 60 65 69 72 73 73 72 70 68 66 64 63 61 60 59 57 55 54 52
61 59 58 58 58 57 56 56 55 56 56 56 56 56 55 54 53 52 51 50 48 47 45 43 40 38 36 33 30 30 33 35 36 35 33 30 28 28 30 32 32 32 31 30 29 29 29 29 29 28 28 28 28 29 30 31 32 33 35 36 37 39 40 42 44 48 52 58 63 67 70 72 72 71 70 67 65 63 62 61 60 58 57 55 53 51
59 57 57 57 57 57 56 56 55 56 56 56 56 56 55 53 51 50 48 46 44 42 40 38 36 34 32 30 28 29 31 33 34 33 31 28 26 26 28 29 30 29 29 28 27 27 27 27 26 26 26 25 26 26 27 28 30 31 33 34 36 37 39 41 43 47 51 56 61 66 69 71 71 70 69 67 65 63 62 61 59 58 56 54 52 51
58 57 56 56 57 57 56 56 55 55 56 56 56 55 53 51 49 47 44 42 40 37 35 33 31 29 28 27 27 27 29 31 32 32 30 27 24 24 26 27 28 27 26 26 25 25 25 24 24 23 23 23 23 23 24 26 28 30 31 33 34 36 37 40 42 46 50 55 60 65 68 70 70 69 68 66 64 63 61 60 59 58 56 54 52 50
57 56 56 55 56 56 56 55 55 55 55 54 54 53 51 48 46 43 40 37 34 32 29 27 26 25 25 25 24 25 27 29 31 31 29 25 23 22 23 25 26 25 25 24 24 24 23 22 22 21 21 20 20 20 22 24 27 28 30 32 33 34 36 38 41 45 49 54 59 63 67 68 69 68 66 65 63 62 61 59 58 57 55 53 52 50
56 56 55 55 55 55 55 54 53 53 52 51 50 49 47 44 42 39 36 33 30 27 25 23 22 21 21 22 22 23 25 27 29 29 27 24 22 20 22 23 24 24 23 23 22 22 21 20 20 19 19 18 17 18 20 23 26 28 29 30 31 33 34 37 40 44 48 53 58 62 65 66 67 66 65 63 62 61 60 59 58 56 55 53 52 50
55 55 54 54 53 53 53 52 50 49 48 47 45 44 42 40 37 35 32 29 26 24 22 20 18 18 18 19 20 21 23 25 27 27 26 23 21 20 20 21 22 22 21 21 21 20 20 19 18 18 17 16 16 17 20 23 26 27 28 29 29 31 33 35 38 42 47 51 56 60 63 64 65 64 63 62 61 60 59 58 57 56 55 53 52 50
53 53 52 52 51 50 49 48 46 45 43 42 41 39 37 35 33 30 28 26 23 21 19 17 16 15 16 17 18 19 21 23 25 25 24 22 20 18 18 20 20 19 19 19 19 19 18 18 17 16 15 14 15 17 20 23 26 26 26 26 27 28 30 33 36 40 44 49 54 58 61 62 63 62 62 61 60 59 59 58 57 56 55 54 52 51
50 50 49 48 47 45 44 42 41 40 39 38 37 36 34 32 30 27 25 23 21 18 16 15 15 15 15 16 17 18 19 21 22 23 22 20 18 16 17 18 18 18 17 17 17 18 18 17 16 16 15 14 14 17 20 24 25 25 24 24 25 26 28 31 34 37 42 46 51 55 58 60 61 60 60 60 59 59 58 58 57 56 56 55 53 52
46 45 44 43 41 40 38 37 36 36 35 35 35 34 33 31 28 25 22 20 19 17 15 14 14 14 15 16 17 17 18 19 20 21 20 19 17 15 15 16 17 17 16 16 16 17 17 17 17 16 15 14 15 17 21 23 23 22 21 21 22 24 26 28 31 35 39 43 48 52 55 57 58 58 58 58 58 58 58 57 57 57 56 55 54 53
41 39 38 37 36 35 34 33 33 33 33 33 33 33 32 31 28 25 22 21 19 17 15 15 15 15 15 16 16 16 17 17 18 19 19 18 16 15 15 16 16 17 16 15 15 16 17 17 17 16 16 16 16 18 20 22 21 19 18 18 20 21 23 26 29 32 36 40 44 48 52 54 55 56 56 56 57 57 57 57 57 57 57 56 55 54
35 34 34 33 33 32 32 32 32 32 32 33 33 33 32 31 29 27 25 23 20 18 17 16 16 16 16 16 15 15 15 16 18 19 18 17 16 15 15 16 16 17 16 15 15 15 16 16 16 16 16 16 17 19 20 20 18 17 16 16 17 19 21 24 27 30 33 37 41 44 48 50 52 53 54 55 55 56 56 56 56 57 57 56 55 54
31 31 31 31 31 31 32 32 32 33 33 33 33 33 33 32 31 29 27 25 23 21 19 18 17 17 17 17 16 16 15 16 18 19 19 18 16 15 15 16 16 17 16 15 14 14 15 15 16 15 15 16 17 18 19 18 16 14 13 14 15 17 19 22 24 27 30 34 37 40 43 46 48 50 52 53 54 54 55 55 56 56 56 56 55 54
29 29 30 31 31 32 33 33 34 34 34 34 34 34 33 32 31 31 29 28 27 25 23 21 19 19 19 19 18 17 16 16 18 20 20 19 17 15 15 16 16 16 16 15 14 13 13 14 14 14 14 14 15 16 17 15 13 11 11 12 14 15 17 20 22 25 28 30 33 36 39 42 44 46 48 50 51 52 53 54 54 55 55 55 54 54
29 30 31 32 33 34 34 35 35 36 36 35 35 34 34 33 32 32 31 30 29 27 26 24 22 20 20 20 19 18 17 17 18 20 20 19 17 15 15 16 17 16 16 15 14 13 12 12 13 14 13 14 14 15 14 12 10 9 10 11 12 14 16 18 20 22 25 27 30 33 35 37 40 42 44 46 48 49 51 52 53 53 53 53 53 53
30 32 33 34 35 35 36 37 37 37 37 36 35 35 34 33 33 32 32 31 30 29 28 26 25 23 21 20 19 18 18 18 20 20 20 19 17 15 15 16 17 17 16 14 13 12 11 11 12 13 13 13 13 13 11 9 8 8 9 10 12 13 15 17 19 21 23 25 27 30 32 34 36 38 40 42 44 46 47 49 50 50 51 51 51 51
32 33 34 35 36 37 37 38 38 38 37 37 36 35 34 34 33 33 32 32 31 30 29 28 26 24 22 21 19 18 18 19 20 21 20 18 17 15 15 16 17 16 15 14 12 11 10 9 10 11 12 12 11 10 9 7 6 7 8 10 11 13 14 16 18 20 22 24 26 27 29 31 33 35 37 38 40 42 43 45 46 47 48 48 49 49
34 35 36 37 37 38 38 38 38 38 38 37 36 35 34 33 33 32 32 32 31 30 28 27 26 25 23 22 20 18 17 18 19 20 19 17 16 15 15 16 16 15 14 12 10 9 8 8 8 9 10 10 9 8 6 4 5 6 8 10 11 13 14 16 18 19 21 23 25 26 28 30 31 33 34 36 37 39 40 42 43 44 45 46 46 47
36 37 37 38 38 38 38 38 37 37 36 35 34 33 33 32 32 32 31 31 30 29 27 26 24 23 22 21 20 19 17 16 17 17 17 16 15 14 14 15 14 13 12 10 8 7 6 6 6 6 7 7 7 5 3 3 4 6 8 10 12 13 15 16 18 20 21 23 24 26 27 29 30 32 33 34 36 37 38 39 40 41 42 43 44 45
38 38 37 37 37 37 36 35 35 34 33 32 31 31 30 30 30 29 29 28 27 26 25 23 22 21 21 20 20 18 17 16 15 15 15 14 13 13 14 14 13 11 10 8 7 5 5 4 4 4 4 4 4 2 1 3 5 7 9 11 12 14 15 17 19 20 22 23 25 26 27 29 30 31 32 33 35 36 37 38 39 40 41 42 44 45
36 36 35 35 34 33 33 32 31 30 29 28 28 27 27 27 26 26 25 25 24 23 22 21 20 20 20 19 19 18 17 16 15 14 13 13 12 13 13 13 12 10 9 7 6 5 4 3 2 2 2 2 1 1 3 5 7 9 10 12 13 15 17 18 20 21 23 24 25 27 28 29 30 31 32 33 34 35 36 37 38 40 41 42 43 44
33 33 32 31 31 30 29 28 27 26 25 25 24 24 24 23 23 23 22 22 21 20 19 19 19 19 19 18 18 17 17 16 15 14 13 13 12 12 12 12 11 10 8 7 6 5 4 3 2 2 1 1 2 3 5 7 9 10 11 13 14 16 18 19 21 22 23 25 26 27 28 29 30 32 32 33 34 35 36 37 39 40 41 42 43 44
30 29 28 28 27 26 26 25 24 23 22 22 22 21 21 20 20 20 20 20 19 18 18 18 18 18 18 17 17 16 16 15 15 14 13 13 12 12 12 12 11 10 9 8 7 6 5 5 4 4 4 4 5 6 7 8 10 11 13 14 16 17 19 20 21 23 24 25 26 28 29 30 31 32 33 34 35 36 37 38 39 40 41 42 42 43
27 26 26 25 24 24 23 23 22 21 21 20 20 19 19 18 18 18 18 18 18 18 17 17 17 17 17 16 15 15 15 15 15 14 14 13 13 12 12 11 11 10 9 8 7 7 7 7 6 6 7 7 7 8 9 10 11 12 14 15 17 18 20 21 22 24 25 26 27 28 29 30 31 32 33 34 35 36 37 38 39 40 40 41 41 41
25 24 24 23 22 22 21 21 21 20 20 19 19 18 17 17 17 16 16 16 17 16 16 16 16 16 16 16 15 14 14 14 14 14 13 13 12 12 12 11 11 10 9 9 8 8 8 8 8 8 8 9 9 9 10 11 12 13 15 16 18 19 21 22 23 24 26 27 28 29 30 31 32 33 34 35 36 37 37 38 39 39 39 40 39 39
23 23 22 22 21 21 20 20 20 19 19 19 18 18 17 16 16 16 16 16 16 16 16 16 16 16 16 16 15 15 14 14 14 13 13 13 12 12 12 11 11 11 10 10 10 10 10 10 10 10 9 10 10 11 11 12 12 14 15 17 18 20 21 23 24 25 26 27 29 30 31 32 33 34 35 36 36 37 38 38 38 38 38 38 38 38
22 22 21 21 20 20 20 19 19 19 18 18 18 17 17 16 16 16 16 16 16 16 16 16 16 17 17 16 16 16 15 14 14 13 13 12 12 12 11 11 11 11 11 10 10 11 11 11 11 11 10 11 11 12 12 12 13 14 15 17 18 20 21 23 24 26 27 28 29 30 31 32 33 34 35 36 37 37 38 38 38 38 38 37 37 37
21 21 20 20 20 20 19 19 18 18 18 17 17 17 16 16 16 16 16 16 17 17 17 17 17 17 17 17 17 17 16 16 15 14 13 13 12 11 11 11 11 10 10 10 10 10 10 11 12 11 11 12 12 12 12 13 13 14 16 17 18 20 22 23 25 26 27 28 30 31 32 33 34 35 36 37 37 37 38 38 38 38 38 37 37 37
21 20 20 20 19 19 19 18 18 17 17 17 16 16 16 15 15 16 16 16 17 17 17 18 18 17 17 17 17 17 17 17 16 16 15 14 13 12 11 11 10 10 9 9 9 9 9 10 11 11 12 12 13 13 13 13 13 14 16 17 18 20 22 23 25 26 27 29 30 31 33 34 35 36 36 37 37 37 37 37 37 37 37 37 37 37
20 20 19 19 18 18 18 17 17 17 16 16 16 15 15 15 15 16 16 17 17 18 18 18 17 16 16 16 15 16 16 16 16 16 16 15 14 13 12 11 11 10 9 9 8 9 9 9 10 11 12 12 12 12 12 13 13 14 15 17 18 20 22 23 25 26 28 29 30 32 33 34 35 36 36 36 36 36 36 36 36 36 37 37 37 37
20 19 19 18 17 17 16 16 16 15 15 15 15 15 15 15 15 16 16 17 18 18 18 18 17 16 15 15 14 14 14 14 14 14 15 15 14 14 14 13 12 11 10 9 8 8 8 9 9 10 11 12 12 12 12 13 13 14 15 16 18 20 22 24 25 26 28 29 31 32 33 34 35 36 36 36 36 35 35 35 35 35 35 36 36 37
19 19 18 17 16 15 14 14 14 14 14 14 15 15 15 15 16 16 17 18 18 18 18 18 17 17 16 15 15 14 13 12 12 12 12 13 13 14 14 14 13 12 11 10 10 9 9 9 10 10 10 11 11 12 12 13 13 14 15 16 18 20 22 24 26 27 28 30 31 32 34 34 35 35 35 35 34 34 33 33 33 33 34 34 35 36
19 18 17 16 15 14 14 13 13 13 13 14 14 14 15 15 16 17 18 18 19 18 18 17 17 17 17 16 16 15 14 13 11 10 10 10 11 12 13 14 14 14 13 12 12 11 11 11 10 11 11 11 11 11 12 13 13 14 15 16 18 20 22 24 26 27 29 30 32 33 33 34 34 34 34 33 33 32 32 31 31 32 32 33 34 35
19 18 17 16 15 15 14 14 13 13 13 14 14 14 15 16 16 17 18 18 18 17 17 17 16 17 17 17 16 16 15 14 12 11 9 8 8 8 10 12 14 15 15 15 14 13 13 12 11 11 11 11 12 12 12 13 13 14 15 16 18 20 22 24 26 28 29 31 32 33 33 34 33 33 33 32 31 31 30 30 30 31 31 32 33 34
Wind_Direction
306 306 306 305 305 305 304 304 304 304 303 302 302 301 300 298 297 295 294 293 291 290 289 288 287 286 286 285 285 285 284 283 282 281 280 280 279 278 277 277 276 275 274 273 273 272 271 270 269 268 267 265 264 263 262 260 259 257 255 253 251 249 247 245 242 239 237 236 236 236 237 237 237 237 236 235 233 232 230 229 228 228 228 229 231 232
307 306 306 306 305 305 305 305 305 304 303 303 302 301 299 298 296 295 294 292 291 290 289 288 287 287 286 286 286 285 285 284 283 282 281 280 280 279 278 278 277 276 275 274 273 272 271 270 269 268 267 266 264 263 262 260 259 257 255 253 251 249 247 245 243 240 237 235 234 235 235 236 237 237 236 236 234 233 231 229 228 228 227 227 228 230
307 307 307 306 306 306 306 306 305 305 304 303 302 301 299 298 296 295 294 293 291 290 290 289 288 288 287 287 286 286 285 285 284 283 282 281 281 280 279 278 278 277 276 275 274 273 272 271 269 268 267 266 265 264 262 261 259 258 256 253 251 249 247 245 243 240 237 235 233 233 234 235 236 236 236 236 235 234 232 230 229 229 228 228 227 228
308 308 307 307 307 307 307 306 306 305 304 303 302 301 300 298 297 296 294 293 292 291 290 290 290 289 289 288 288 287 287 286 285 284 284 283 282 281 280 279 278 277 276 275 274 273 272 271 270 269 268 267 266 265 263 262 260 258 256 254 252 249 247 245 243 240 237 235 233 232 233 234 235 235 236 236 236 235 233 232 230 230 230 229 228 227
309 309 308 308 308 308 307 307 306 306 305 304 302 301 300 298 297 296 295 294 293 292 291 291 291 290 290 290 289 289 288 287 287 286 285 284 283 282 281 280 279 278 277 276 275 274 274 273 272 271 270 269 268 266 265 263 261 259 256 254 251 249 246 244 242 240 237 234 232 231 231 232 233 234 235 236 236 235 234 233 231 231 231 231 231 229
309 308 308 308 308 308 307 307 307 306 305 304 303 301 300 299 297 296 295 294 293 293 292 292 292 291 291 291 290 290 289 288 288 287 286 285 284 283 282 281 280 279 278 277 277 276 275 274 274 273 272 271 269 268 266 263 261 258 255 253 250 247 245 242 240 238 236 234 231 229 229 230 232 233 234 235 235 235 234 233 232 231 232 232 232 232
308 308 308 308 308 308 307 307 307 306 305 304 303 302 300 299 297 296 295 294 294 293 293 293 292 292 292 292 291 291 290 289 288 287 286 285 284 283 282 282 281 280 279 279 278 277 277 276 275 275 274 273 271 269 267 264 261 258 255 251 248 245 243 240 238 236 234 232 230 228 227 228 229 231 232 233 234 234 234 233 232 232 232 233 233 233
309 309 309 309 308 308 308 307 307 307 306 305 304 303 301 299 298 297 296 295 295 294 294 294 294 293 293 293 292 291 290 289 288 287 286 285 284 283 282 282 281 281 280 279 279 278 278 278 277 277 276 274 272 269 267 264 261 258 254 251 248 244 241 238 236 234 232 230 228 226 226 226 227 229 230 232 232 233 233 233 232 232 232 232 233 234
310 310 310 309 309 309 308 308 308 307 307 306 305 304 302 301 299 298 297 296 296 296 296 296 296 295 295 294 294 293 291 290 288 287 286 285 284 283 283 282 281 281 280 280 279 279 279 279 279 278 277 274 272 269 266 264 261 258 255 251 248 244 240 237 234 232 230 228 226 225 224 224 226 227 229 230 231 231 232 232 232 232 232 232 233 233
310 310 310 310 310 310 309 309 309 308 308 306 305 304 303 302 301 300 299 298 298 298 298 298 297 297 297 296 295 294 292 291 289 288 287 286 285 284 283 283 282 281 281 280 280 280 279 279 279 278 276 274 272 269 267 264 262 259 255 251 248 244 240 236 233 230 228 226 225 223 223 223 224 226 227 228 229 230 231 231 232 232 232 232 232 233
310 311 311 310 310 310 310 309 309 309 308 307 306 305 304 303 302 301 301 301 301 300 300 299 299 299 299 298 297 295 294 291 290 288 287 286 285 285 284 283 283 282 281 281 280 280 279 278 278 276 275 273 271 269 267 265 262 259 255 251 247 243 239 235 232 229 227 225 223 222 221 222 223 224 226 227 228 229 230 230 231 231 232 232 232 232
311 311 311 311 311 311 310 310 309 309 309 308 306 305 304 303 302 302 302 303 303 302 301 301 301 301 301 301 299 297 294 292 290 288 287 286 286 285 284 283 283 282 282 281 281 280 279 277 276 275 274 272 271 269 266 264 261 257 254 249 246 242 239 235 231 228 226 224 222 221 220 220 221 223 224 226 227 228 229 229 230 230 231 231 231 231
311 311 311 311 312 312 311 311 310 310 309 308 307 305 304 303 303 302 302 303 303 303 303 303 303 302 302 302 300 298 294 292 290 288 287 287 286 285 284 283 283 282 282 281 281 280 278 277 276 275 273 272 270 268 265 262 259 255 251 248 244 241 238 234 231 228 225 223 221 220 219 219 220 221 222 224 225 226 227 227 228 228 229 230 230 230
312 312 312 312 312 312 312 311 311 310 309 308 306 305 304 304 303 303 303 303 304 304 304 304 304 304 303 302 300 297 294 291 289 288 287 287 286 285 284 283 283 282 282 281 280 279 278 277 276 275 273 271 268 266 263 260 257 254 249 245 243 240 237 233 230 227 224 222 220 219 218 218 218 219 221 222 223 224 224 225 226 226 227 227 228 228
312 312 312 313 313 313 312 312 311 310 309 308 306 305 304 304 304 304 304 304 305 305 305 305 304 304 304 302 300 297 293 291 289 288 287 287 287 286 285 284 283 283 282 281 280 279 278 277 276 274 272 270 267 264 261 259 255 252 248 244 241 239 235 232 229 226 223 221 219 217 217 216 217 218 219 220 221 221 222 223 224 224 225 225 225 225
312 312 312 312 313 312 312 312 311 310 309 308 306 305 305 305 305 305 305 306 306 306 306 306 306 305 303 302 300 297 294 291 289 289 288 288 287 286 285 284 284 283 283 282 281 279 278 277 275 274 272 269 266 263 260 257 254 251 246 242 239 237 234 231 228 225 222 220 218 216 215 215 216 217 218 218 219 220 220 221 222 223 223 224 224 224
313 313 312 312 312 312 312 312 311 310 309 308 307 306 306 306 307 307 307 307 308 308 308 308 307 306 304 301 299 296 293 291 289 289 288 289 288 287 285 284 284 284 283 282 280 279 278 277 276 274 272 269 266 263 259 256 253 250 246 242 239 236 234 231 228 225 222 220 217 215 214 214 215 216 217 218 218 218 219 220 220 221 222 222 222 222
313 313 313 312 312 312 312 312 311 310 309 308 307 307 307 308 308 308 309 309 309 310 309 309 308 306 305 302 299 295 292 290 289 288 289 289 288 287 285 284 284 284 283 282 281 279 278 277 276 274 272 270 267 263 260 256 253 250 246 243 240 237 234 232 229 226 223 220 217 215 214 214 214 215 216 217 217 218 218 218 219 219 220 220 220 220
314 313 313 312 312 312 312 312 311 310 309 308 308 308 308 309 310 310 310 311 311 311 311 310 309 307 306 303 300 296 292 290 289 289 290 290 289 287 284 283 283 283 283 282 281 279 278 277 276 275 273 270 267 264 261 258 254 251 247 244 241 237 234 231 228 225 222 219 217 215 214 214 214 215 216 216 217 217 217 217 218 218 218 218 218 218
314 314 314 313 312 312 312 312 311 310 309 309 309 309 310 311 311 312 312 313 313 312 312 311 310 309 307 304 302 297 293 290 290 290 291 291 290 287 284 283 282 283 283 282 280 279 278 277 276 274 272 270 267 265 262 259 255 252 248 245 241 238 234 230 227 224 221 218 216 214 213 213 214 214 215 215 216 216 216 216 216 216 216 216 216 216
314 314 314 313 313 312 312 312 311 310 310 310 310 311 311 312 313 314 315 315 314 314 313 312 312 311 309 306 303 299 294 292 292 292 292 293 292 289 285 283 283 283 283 282 280 278 277 276 274 272 270 268 266 265 263 260 257 253 249 245 241 237 234 230 226 223 220 217 215 213 213 213 213 214 214 214 215 215 215 215 215 215 215 215 215 215
315 315 314 313 313 312 312 312 311 311 311 311 311 312 313 314 316 317 318 317 317 316 316 316 316 314 311 308 305 301 296 294 294 294 295 296 294 290 286 284 284 284 283 282 280 278 276 274 272 269 267 265 265 264 263 262 259 255 250 245 241 237 233 229 225 222 218 216 214 212 212 212 212 213 214 214 214 214 214 215 215 214 214 214 214 214
315 314 314 313 313 312 312 312 312 312 312 313 313 314 315 317 319 320 321 321 320 321 321 321 320 317 315 312 308 304 300 297 296 297 299 300 299 294 289 286 285 285 284 282 279 277 275 272 269 266 264 262 261 262 262 261 259 256 251 246 241 236 232 228 224 221 217 215 213 212 212 212 212 213 213 213 214 214 214 214 214 214 214 213 213 214
314 314 314 313 313 312 312 313 314 314 315 315 316 317 318 320 322 323 324 324 324 325 327 327 327 325 323 319 315 311 306 302 300 301 302 303 303 300 293 289 286 285 284 281 278 276 273 270 267 264 261 259 259 261 262 261 259 256 251 246 240 235 231 227 223 219 217 214 213 212 211 212 212 213 213 213 213 214 214 214 214 214 214 214 214 214
314 314 313 313 313 314 314 315 316 317 318 319 319 321 322 324 326 327 327 327 328 330 332 335 337 337 335 329 324 319 312 306 305 305 306 308 308 306 299 293 290 287 285 281 278 275 272 269 265 261 258 256 258 262 264 262 260 256 250 245 239 234 229 225 222 218 216 214 212 212 211 212 212 212 213 213 213 213 214 214 214 214 214 214 214 215
314 314 314 314 315 316 317 319 320 321 322 323 324 325 327 329 330 330 330 329 330 333 337 341 342 342 340 336 331 324 317 311 309 310 311 314 315 313 305 298 294 291 288 282 278 276 273 269 264 259 254 253 257 261 263 262 259 255 250 244 238 232 228 224 220 217 215 213 212 212 212 212 212 212 213 213 213 214 214 214 214 215 215 215 216 216
314 314 315 316 318 320 321 323 324 325 326 327 328 329 330 332 333 333 332 331 330 331 336 337 339 340 340 337 332 326 320 316 314 314 315 319 322 320 312 303 298 295 290 284 279 276 273 270 264 258 252 250 253 258 260 260 259 255 249 242 236 230 225 221 218 216 214 213 212 212 212 212 212 213 213 213 214 214 214 214 215 215 216 216 217 217
316 317 318 320 322 324 325 327 328 328 329 330 330 331 332 333 334 335 334 330 328 328 331 333 335 336 336 334 330 325 320 317 314 313 315 318 323 323 316 306 300 296 291 285 279 275 273 270 266 259 253 250 252 256 259 260 259 255 248 240 233 227 223 219 216 214 213 212 212 212 212 212 213 213 214 214 214 214 215 215 216 216 217 217 218 218
320 321 323 324 326 327 328 328 329 329 330 330 330 331 332 333 334 335 334 331 329 327 328 330 331 332 332 330 326 321 317 313 310 309 310 313 317 318 312 306 301 297 292 287 280 274 271 270 266 261 257 254 255 257 260 260 259 254 246 237 230 224 220 216 214 212 211 211 211 211 212 213 213 214 214 214 215 215 215 216 216 217 217 218 218 219
323 325 326 326 327 327 327 327 328 328 328 328 329 329 330 332 333 334 334 333 331 329 328 329 330 330 330 327 324 319 312 307 305 305 305 306 309 311 308 305 302 299 295 290 283 275 269 267 265 263 259 257 258 260 261 261 258 252 243 234 227 221 216 213 211 210 209 209 210 210 211 212 213 214 214 215 215 215 216 216 216 217 217 218 218 219
326 326 326 326 326 325 325 325 325 325 326 326 327 328 329 330 331 332 333 332 332 331 331 330 331 331 330 327 324 320 313 304 301 301 301 302 305 308 308 306 304 301 297 293 286 278 269 263 261 261 260 259 259 260 261 259 255 247 238 229 222 217 212 209 208 207 207 207 208 209 210 211 212 213 213 214 215 215 216 216 216 217 217 217 217 218
326 325 324 324 323 322 322 322 323 323 323 324 325 326 327 328 329 330 331 331 331 331 331 332 332 332 331 328 325 321 315 307 301 300 300 302 305 308 309 307 304 301 297 294 289 281 272 261 257 257 258 258 258 259 259 257 251 241 231 223 217 211 207 204 203 203 204 204 205 206 207 208 209 210 211 212 213 214 214 215 215 215 216 216 216 216
324 323 322 321 320 319 319 319 319 320 321 321 323 324 325 326 327 328 329 329 329 329 329 330 331 332 331 329 326 322 316 310 304 302 302 304 308 311 311 308 305 302 300 297 292 286 277 266 259 257 257 257 258 259 259 255 245 233 223 215 209 204 200 198 198 198 199 200 200 201 202 203 205 206 207 208 210 211 212 212 213 213 213 213 213 213
321 319 318 317 317 316 316 316 316 317 317 318 319 320 322 323 324 325 326 327 327 327 327 327 328 329 329 328 326 323 318 311 307 305 306 308 312 315 315 311 309 307 306 303 299 292 284 273 264 258 256 258 261 262 261 253 237 221 211 206 201 197 194 192 192 192 193 194 195 196 197 198 200 201 202 204 205 206 207 208 209 209 209 209 209 209
318 317 315 314 314 314 313 313 314 314 315 315 316 317 319 320 322 323 325 325 326 326 327 327 327 327 327 327 327 326 322 315 309 307 309 313 317 321 321 318 316 316 316 313 307 299 290 279 267 259 254 256 261 264 262 246 221 206 199 195 192 189 186 186 186 186 187 188 189 190 192 193 194 195 197 198 199 201 202 203 204 204 204 204 204 203
317 316 315 314 313 313 313 313 313 314 314 315 315 316 318 319 321 322 324 325 325 326 327 327 327 327 327 328 330 331 329 323 315 312 314 318 323 327 328 327 326 327 327 325 320 311 298 284 271 259 251 249 254 260 255 213 192 187 186 185 183 182 180 180 181 182 183 183 184 185 187 188 189 191 192 193 194 195 196 197 198 198 199 198 198 198
318 317 316 316 316 316 316 316 316 317 317 318 318 319 320 321 322 324 325 326 326 327 328 328 328 327 328 331 334 335 334 329 323 319 320 325 329 334 335 335 336 338 339 338 335 326 315 298 279 263 248 241 241 242 190 160 164 169 173 175 175 175 175 176 177 178 179 179 180 181 183 184 185 186 187 188 189 190 191 192 193 193 192 192 192 192
321 320 320 320 320 321 321 322 323 323 324 325 326 326 326 327 327 327 328 328 329 330 331 330 329 329 331 334 337 338 337 334 331 328 329 332 337 341 342 343 345 348 351 352 352 349 342 329 308 285 260 236 206 140 121 138 150 158 164 167 168 169 171 172 174 175 176 177 177 178 180 181 182 183 183 184 185 186 186 187 187 187 187 187 188 189
325 325 325 326 327 328 329 331 332 334 335 336 336 336 335 335 334 333 332 332 333 334 334 334 333 334 336 338 340 340 339 339 339 338 339 342 345 348 348 349 352 356 0 3 5 7 8 9 8 8 23 66 88 102 116 132 143 151 157 160 163 165 167 169 171 172 173 174 175 176 177 178 179 179 180 181 181 182 182 182 183 183 183 184 185 186
331 331 332 333 335 337 339 342 344 345 346 346 345 344 344 342 340 339 338 338 339 340 340 340 340 341 342 344 344 343 343 345 346 348 349 352 355 357 356 355 358 3 8 11 14 17 23 27 35 48 62 73 86 100 115 128 139 146 151 155 159 162 165 167 169 170 171 172 173 174 175 176 176 177 177 178 178 179 179 179 179 180 181 182 183 185
338 339 340 342 345 347 350 352 354 354 354 353 352 352 351 349 348 346 346 346 347 348 348 348 347 348 349 351 350 349 349 350 352 354 357 0 2 3 3 3 5 8 13 17 21 27 32 37 45 55 67 78 91 104 116 127 135 143 148 153 158 161 164 165 167 168 170 170 171 172 173 173 174 174 175 175 175 176 176 176 177 178 179 181 183 185
344 346 348 350 353 356 359 0 0 360 358 358 358 358 358 356 356 355 354 355 355 355 354 354 353 353 355 357 357 357 355 354 355 356 359 3 6 7 8 10 12 16 19 23 29 33 39 44 50 58 69 82 94 105 116 126 134 141 147 153 157 160 162 164 166 167 168 169 170 170 171 171 172 172 173 173 173 173 174 174 175 177 179 181 183 185
351 352 355 358 1 3 5 5 5 4 3 4 4 5 5 5 5 4 4 2 2 2 2 2 2 2 2 2 2 3 2 0 359 0 2 5 8 10 13 15 18 22 25 29 33 39 45 49 54 61 73 86 97 106 116 125 133 140 146 151 156 159 162 164 165 166 167 168 168 169 169 169 170 170 171 171 171 172 172 173 174 176 178 180 183 185
356 358 1 4 7 8 9 9 9 9 9 10 11 11 12 13 14 13 13 11 10 10 10 11 11 11 9 7 6 7 8 8 8 7 8 10 12 15 16 18 21 26 29 31 34 40 46 51 57 65 77 88 98 107 116 124 132 139 145 150 154 158 161 164 165 166 167 167 167 167 167 168 168 169 169 170 170 171 172 173 174 176 178 180 183 185
1 3 6 9 11 12 12 12 12 12 14 15 15 16 18 19 20 20 19 17 16 16 15 16 15 14 13 12 12 13 14 15 16 16 17 18 19 21 21 22 24 27 31 33 37 41 45 51 57 67 78 89 98 107 115 123 131 138 145 149 154 158 162 164 165 166 166 166 166 166 166 167 167 168 169 169 170 171 172 173 175 177 179 181 183 185
6 8 10 12 13 13 13 13 13 14 16 18 19 20 20 21 22 22 22 21 19 17 16 17 16 14 14 14 15 17 18 20 22 23 23 24 25 27 28 28 30 31 33 36 41 46 52 56 62 69 77 87 97 106 115 122 130 137 144 149 154 158 161 163 164 164 164 164 165 165 165 166 166 167 168 169 170 171 173 174 176 178 180 181 184 186
12 12 13 13 14 13 13 13 13 15 16 18 19 21 21 21 21 22 22 21 19 16 14 13 11 11 11 12 14 16 18 21 23 25 27 29 31 33 34 35 36 38 39 42 46 51 58 64 69 74 79 86 95 104 114 122 129 137 143 149 154 158 161 162 163 163 163 163 164 164 164 165 166 166 167 169 170 171 173 175 177 179 180 182 184 185
16 16 15 15 14 14 13 13 13 15 16 18 19 20 20 19 19 19 19 19 17 14 11 8 5 5 5 6 7 9 13 17 21 25 28 31 35 37 39 40 42 44 47 51 56 61 66 72 77 81 85 89 96 104 113 121 129 136 142 149 154 158 160 161 161 161 161 162 163 164 164 164 165 166 167 168 169 171 173 175 176 178 180 182 183 184
18 18 17 17 17 16 16 15 15 16 16 17 17 17 17 17 17 17 18 18 16 13 9 6 4 4 4 4 4 5 6 8 13 19 25 31 37 41 44 46 47 49 53 58 64 69 75 80 86 92 96 98 101 106 115 122 129 136 142 148 153 156 158 159 159 160 161 162 162 163 163 163 164 164 165 167 168 170 171 173 175 177 179 180 182 183
19 18 18 19 20 20 20 19 18 18 18 18 17 15 15 15 15 17 18 17 15 13 11 9 9 10 11 11 11 10 9 8 8 10 16 26 35 43 47 51 53 55 59 63 68 73 78 83 90 98 105 109 111 113 117 124 130 137 142 148 151 154 156 157 158 159 160 160 161 161 162 162 162 163 164 165 167 168 170 172 173 175 177 179 180 182
19 19 19 20 22 23 24 24 23 22 21 20 19 17 17 16 17 18 18 17 16 15 15 15 17 18 20 20 21 20 20 18 16 14 13 17 28 40 50 55 59 62 64 67 70 75 80 84 90 98 106 113 118 121 123 127 132 137 143 147 150 152 153 155 156 157 158 159 159 160 160 160 161 162 163 163 165 166 168 170 172 174 175 177 178 180
Height
5391 5388 5384 5381 5379 5375 5372 5369 5366 5363 5359 5355 5353 5350 5347 5344 5341 5338 5335 5333 5329 5327 5324 5323 5321 5319 5318 5317 5316 5314 5313 5312 5310 5309 5307 5305 5304 5303 5302 5301 5300 5300 5299 5299 5298 5298 5298 5298 5298 5299 5299 5299 5299 5300 5301 5302 5304 5305 5306 5308 5309 5311 5313 5315 5318 5321 5325 5329 5332 5335 5338 5341 5345 5348 5352 5357 5362 5367 5371 5377 5382 5386 5390 5394 5398 5401
5384 5380 5376 5373 5370 5368 5364 5361 5358 5355 5352 5348 5345 5343 5340 5337 5334 5332 5329 5326 5324 5321 5319 5316 5315 5313 5312 5311 5309 5309 5307 5305 5304 5302 5300 5298 5297 5295 5294 5294 5293 5292 5291 5291 5290 5290 5290 5290 5290 5290 5291 5291 5292 5292 5293 5294 5295 5296 5297 5299 5301 5303 5305 5307 5310 5313 5316 5320 5324 5327 5331 5334 5338 5341 5345 5349 5354 5359 5364 5370 5375 5379 5383 5387 5391 5395
5376 5373 5369 5364 5362 5360 5357 5354 5350 5347 5344 5341 5338 5335 5333 5330 5327 5325 5322 5320 5317 5315 5313 5311 5309 5307 5306 5304 5304 5302 5300 5299 5297 5295 5293 5291 5289 5288 5287 5286 5285 5284 5284 5283 5283 5282 5282 5282 5282 5282 5283 5283 5284 5284 5285 5285 5286 5288 5289 5291 5294 5296 5298 5299 5302 5305 5308 5312 5316 5320 5324 5328 5331 5335 5339 5343 5347 5352 5357 5363 5368 5372 5375 5379 5384 5388
5368 5365 5360 5356 5354 5351 5349 5346 5343 5339 5336 5333 5331 5328 5326 5323 5320 5318 5316 5313 5311 5308 5307 5305 5303 5301 5299 5298 5297 5295 5294 5292 5290 5288 5286 5284 5282 5281 5279 5279 5278 5277 5276 5275 5275 5274 5274 5274 5274 5274 5275 5275 5275 5276 5277 5277 5278 5279 5281 5283 5285 5288 5289 5292 5294 5297 5301 5305 5309 5313 5318 5322 5325 5329 5333 5337 5341 5345 5350 5355 5360 5364 5368 5372 5376 5380
5361 5358 5353 5349 5346 5343 5341 5338 5335 5332 5329 5326 5324 5322 5319 5317 5314 5312 5309 5307 5304 5302 5300 5299 5297 5295 5294 5292 5290 5289 5287 5285 5283 5281 5279 5277 5275 5274 5272 5271 5270 5270 5269 5268 5268 5267 5267 5266 5266 5267 5267 5267 5268 5269 5269 5269 5269 5270 5272 5273 5275 5278 5280 5283 5286 5289 5293 5297 5301 5305 5310 5315 5319 5323 5327 5331 5335 5339 5343 5348 5353 5357 5361 5364 5368 5373
5354 5351 5347 5343 5339 5336 5334 5331 5328 5325 5321 5319 5317 5315 5313 5311 5308 5305 5303 5300 5298 5296 5295 5293 5292 5290 5288 5286 5284 5283 5281 5279 5277 5274 5272 5270 5269 5267 5266 5264 5264 5263 5262 5261 5260 5260 5259 5259 5259 5259 5259 5260 5260 5260 5260 5260 5260 5260 5261 5263 5265 5267 5271 5274 5278 5281 5284 5288 5293 5298 5303 5308 5312 5316 5320 5324 5328 5331 5336 5340 5345 5350 5354 5358 5362 5366
5347 5345 5342 5338 5333 5330 5327 5324 5322 5319 5315 5312 5309 5308 5306 5304 5302 5300 5297 5295 5293 5290 5289 5287 5286 5285 5283 5281 5279 5276 5274 5272 5270 5268 5266 5264 5262 5261 5259 5258 5257 5256 5255 5254 5254 5253 5252 5252 5252 5252 5252 5253 5253 5252 5251 5250 5250 5250 5251 5253 5255 5257 5261 5265 5268 5272 5276 5280 5285 5290 5295 5300 5305 5309 5313 5317 5320 5324 5329 5334 5339 5344 5348 5352 5356 5360
5339 5337 5334 5331 5327 5323 5320 5318 5316 5313 5309 5306 5303 5300 5299 5297 5295 5294 5291 5289 5287 5285 5283 5281 5280 5279 5278 5275 5273 5271 5268 5266 5264 5262 5260 5259 5257 5255 5253 5252 5251 5250 5249 5248 5247 5246 5245 5245 5245 5245 5246 5245 5244 5243 5243 5242 5241 5241 5242 5244 5246 5249 5252 5256 5259 5263 5268 5272 5278 5283 5288 5293 5297 5302 5305 5309 5313 5318 5323 5329 5334 5338 5342 5346 5350 5354
5332 5329 5326 5324 5320 5317 5313 5310 5309 5308 5304 5301 5297 5294 5291 5289 5287 5286 5285 5284 5282 5280 5278 5275 5274 5274 5273 5271 5268 5265 5262 5260 5258 5256 5254 5253 5251 5249 5248 5246 5245 5244 5243 5242 5241 5240 5239 5239 5239 5239 5239 5238 5236 5235 5234 5234 5234 5234 5235 5237 5239 5241 5245 5248 5252 5256 5261 5265 5270 5276 5281 5285 5290 5294 5298 5302 5307 5313 5319 5324 5329 5333 5337 5341 5345 5349
5325 5322 5319 5316 5314 5311 5308 5304 5302 5301 5299 5295 5291 5288 5285 5282 5279 5278 5278 5278 5277 5276 5273 5270 5268 5267 5266 5265 5263 5260 5257 5254 5252 5251 5249 5247 5245 5243 5242 5240 5239 5238 5237 5236 5235 5234 5234 5233 5233 5233 5232 5231 5229 5228 5227 5227 5227 5228 5229 5231 5233 5235 5238 5242 5246 5250 5254 5259 5264 5269 5274 5279 5284 5288 5293 5298 5304 5310 5315 5320 5324 5328 5332 5335 5339 5344
5318 5315 5313 5310 5308 5306 5304 5300 5297 5294 5292 5289 5285 5283 5281 5278 5274 5271 5269 5270 5271 5270 5268 5266 5264 5262 5260 5259 5257 5254 5251 5249 5247 5245 5244 5242 5240 5238 5236 5234 5233 5232 5232 5231 5230 5229 5228 5227 5227 5226 5225 5224 5223 5222 5222 5222 5222 5223 5224 5226 5228 5229 5232 5235 5239 5243 5247 5252 5257 5262 5267 5273 5278 5283 5289 5295 5300 5306 5311 5315 5319 5323 5327 5330 5334 5339
5313 5309 5306 5304 5302 5300 5298 5295 5292 5289 5286 5283 5279 5277 5275 5273 5270 5267 5264 5264 5264 5264 5262 5261 5259 5258 5255 5253 5250 5248 5246 5243 5241 5240 5239 5238 5236 5234 5231 5229 5228 5227 5226 5225 5224 5224 5223 5221 5220 5219 5219 5218 5218 5217 5217 5216 5217 5218 5219 5221 5223 5224 5226 5229 5233 5237 5242 5246 5251 5256 5261 5267 5272 5279 5285 5291 5296 5301 5306 5310 5314 5318 5322 5326 5330 5334
5306 5304 5302 5300 5298 5295 5291 5288 5285 5283 5281 5278 5274 5271 5269 5268 5266 5264 5260 5259 5258 5258 5256 5255 5254 5253 5252 5249 5246 5243 5240 5237 5235 5235 5234 5233 5231 5229 5226 5224 5223 5223 5222 5220 5219 5219 5217 5216 5215 5214 5214 5213 5213 5212 5212 5212 5213 5214 5215 5216 5218 5219 5222 5224 5228 5232 5236 5240 5245 5250 5255 5261 5268 5274 5280 5286 5291 5296 5301 5305 5309 5313 5316 5320 5324 5329
5301 5299 5296 5294 5291 5289 5286 5283 5280 5277 5275 5273 5270 5267 5264 5263 5261 5259 5256 5255 5254 5253 5251 5249 5249 5248 5247 5245 5242 5238 5234 5231 5230 5229 5230 5229 5227 5224 5221 5219 5219 5218 5217 5216 5215 5214 5213 5211 5210 5209 5209 5209 5208 5208 5208 5208 5209 5209 5211 5212 5214 5215 5217 5220 5223 5226 5229 5234 5238 5244 5250 5256 5263 5269 5275 5281 5286 5290 5295 5299 5303 5307 5311 5315 5319 5324
5297 5294 5290 5287 5285 5283 5281 5278 5275 5272 5270 5268 5265 5263 5260 5258 5256 5254 5252 5250 5249 5248 5247 5245 5244 5244 5243 5241 5237 5232 5228 5225 5224 5224 5225 5225 5223 5220 5217 5214 5214 5214 5213 5212 5211 5210 5209 5207 5206 5205 5205 5204 5204 5204 5204 5204 5205 5206 5207 5209 5210 5211 5213 5216 5218 5220 5223 5227 5232 5238 5244 5251 5258 5264 5270 5276 5281 5285 5289 5293 5298 5302 5306 5310 5314 5319
5293 5289 5285 5282 5280 5278 5276 5274 5270 5267 5265 5263 5261 5258 5255 5254 5252 5250 5248 5246 5244 5244 5242 5240 5238 5238 5238 5237 5233 5228 5223 5220 5219 5219 5220 5220 5219 5217 5213 5210 5209 5210 5209 5209 5207 5206 5205 5204 5203 5202 5201 5200 5200 5200 5200 5200 5201 5202 5203 5204 5206 5207 5209 5210 5212 5215 5218 5223 5228 5234 5240 5247 5253 5259 5264 5270 5275 5280 5284 5288 5293 5297 5302 5306 5311 5315
5289 5285 5281 5278 5275 5273 5271 5269 5267 5264 5260 5258 5256 5254 5252 5249 5247 5246 5244 5243 5241 5239 5237 5235 5233 5232 5232 5232 5230 5225 5220 5215 5214 5214 5215 5216 5216 5213 5210 5207 5206 5206 5206 5205 5204 5202 5201 5200 5199 5199 5198 5198 5197 5197 5197 5197 5198 5199 5199 5200 5202 5204 5205 5207 5209 5213 5216 5221 5225 5231 5237 5243 5249 5255 5260 5265 5270 5275 5279 5284 5289 5294 5298 5303 5308 5312
5284 5281 5278 5274 5271 5269 5267 5265 5262 5259 5256 5254 5251 5249 5247 5246 5244 5244 5242 5239 5236 5234 5232 5230 5228 5227 5225 5225 5224 5222 5217 5212 5210 5210 5212 5213 5212 5210 5207 5204 5203 5202 5203 5202 5201 5199 5198 5197 5196 5196 5195 5195 5194 5194 5194 5195 5195 5196 5197 5198 5199 5200 5202 5205 5208 5211 5215 5219 5224 5229 5235 5240 5246 5251 5257 5262 5266 5271 5276 5281 5286 5290 5295 5299 5304 5309
5279 5277 5274 5270 5267 5264 5263 5261 5258 5255 5251 5249 5247 5244 5243 5242 5241 5240 5237 5234 5232 5229 5227 5225 5224 5222 5221 5219 5219 5217 5213 5209 5207 5207 5208 5209 5209 5207 5204 5201 5200 5199 5199 5199 5198 5196 5195 5195 5194 5194 5193 5192 5192 5192 5192 5192 5193 5194 5194 5195 5196 5198 5200 5202 5205 5208 5212 5217 5222 5227 5232 5238 5243 5248 5253 5259 5264 5269 5274 5279 5283 5288 5292 5297 5301 5306
5274 5273 5270 5266 5262 5259 5258 5257 5254 5251 5247 5244 5242 5241 5239 5238 5237 5235 5233 5231 5228 5226 5224 5222 5220 5218 5217 5215 5214 5212 5209 5206 5204 5204 5204 5205 5205 5204 5202 5199 5197 5197 5196 5196 5195 5194 5194 5193 5192 5191 5191 5190 5190 5190 5190 5190 5191 5191 5192 5193 5194 5195 5197 5199 5202 5205 5209 5214 5218 5224 5229 5234 5239 5245 5250 5255 5260 5266 5271 5275 5280 5285 5289 5294 5299 5303
5270 5268 5267 5263 5259 5256 5254 5252 5250 5248 5244 5241 5239 5237 5235 5234 5233 5231 5229 5227 5225 5223 5221 5219 5217 5215 5213 5212 5210 5209 5206 5204 5202 5201 5202 5203 5203 5201 5199 5196 5195 5194 5194 5194 5193 5192 5191 5190 5190 5189 5189 5189 5189 5189 5189 5189 5189 5189 5189 5190 5191 5193 5195 5197 5200 5203 5206 5210 5215 5220 5225 5230 5236 5241 5247 5253 5258 5263 5268 5273 5278 5282 5287 5292 5296 5300
5266 5264 5262 5260 5256 5253 5250 5248 5246 5244 5241 5238 5235 5234 5232 5231 5229 5227 5225 5224 5222 5220 5218 5216 5214 5213 5211 5209 5208 5206 5204 5201 5200 5199 5199 5200 5200 5199 5197 5194 5194 5193 5193 5192 5191 5189 5189 5189 5189 5188 5188 5188 5188 5188 5188 5188 5187 5187 5187 5188 5189 5191 5193 5195 5198 5200 5204 5208 5213 5217 5223 5228 5233 5239 5244 5249 5255 5260 5265 5270 5275 5280 5285 5289 5294 5298
5264 5261 5259 5256 5253 5250 5248 5245 5243 5241 5238 5235 5233 5231 5230 5228 5226 5224 5222 5220 5219 5217 5216 5214 5213 5211 5209 5207 5206 5204 5202 5200 5198 5197 5198 5197 5197 5197 5195 5193 5192 5191 5190 5190 5189 5188 5188 5187 5187 5187 5186 5186 5187 5187 5187 5187 5186 5186 5185 5186 5187 5189 5191 5193 5195 5199 5202 5206 5211 5216 5221 5227 5233 5238 5243 5248 5254 5259 5264 5269 5273 5278 5283 5287 5292 5295
5261 5258 5255 5253 5250 5247 5245 5243 5241 5238 5235 5233 5231 5229 5228 5225 5223 5221 5219 5217 5216 5215 5214 5212 5211 5209 5208 5206 5204 5203 5201 5199 5197 5196 5195 5195 5195 5194 5193 5192 5191 5190 5189 5189 5188 5187 5186 5186 5185 5185 5185 5185 5186 5186 5186 5185 5184 5184 5184 5184 5185 5187 5189 5191 5194 5197 5201 5205 5210 5215 5220 5225 5231 5236 5242 5247 5252 5257 5262 5267 5271 5276 5281 5285 5289 5293
5258 5255 5253 5250 5248 5246 5243 5241 5238 5235 5232 5230 5228 5226 5224 5223 5221 5219 5217 5216 5214 5213 5212 5211 5210 5209 5207 5205 5204 5202 5200 5198 5196 5194 5194 5194 5194 5193 5192 5190 5189 5189 5188 5187 5186 5185 5185 5185 5184 5184 5184 5184 5185 5185 5185 5184 5183 5182 5182 5183 5184 5186 5188 5190 5193 5196 5200 5204 5209 5214 5219 5224 5229 5234 5240 5245 5250 5255 5259 5264 5269 5274 5278 5282 5286 5290
5256 5254 5251 5249 5246 5243 5240 5238 5235 5233 5230 5228 5225 5224 5222 5221 5220 5219 5217 5215 5214 5212 5211 5210 5209 5208 5206 5205 5203 5202 5200 5198 5196 5194 5193 5193 5193 5192 5190 5189 5188 5187 5187 5186 5185 5184 5184 5184 5184 5183 5183 5183 5184 5184 5184 5183 5181 5181 5181 5182 5184 5185 5187 5190 5193 5196 5200 5204 5209 5213 5218 5223 5228 5233 5238 5243 5248 5253 5258 5262 5267 5271 5275 5279 5283 5287
5254 5252 5249 5247 5244 5241 5239 5237 5234 5232 5229 5227 5224 5222 5220 5219 5219 5217 5216 5214 5213 5212 5211 5210 5209 5208 5206 5204 5203 5201 5199 5197 5196 5194 5193 5192 5191 5190 5189 5188 5187 5186 5186 5185 5184 5184 5183 5183 5183 5182 5182 5182 5183 5183 5182 5181 5180 5180 5181 5182 5183 5185 5187 5189 5192 5196 5199 5204 5208 5212 5217 5222 5226 5231 5236 5241 5246 5251 5255 5259 5264 5268 5272 5276 5280 5284
5252 5249 5247 5245 5242 5240 5238 5236 5233 5231 5229 5226 5224 5222 5220 5219 5217 5216 5215 5214 5212 5211 5210 5209 5208 5207 5205 5204 5202 5200 5199 5197 5195 5194 5192 5191 5190 5190 5189 5187 5186 5185 5185 5184 5184 5183 5182 5182 5181 5181 5181 5181 5181 5181 5181 5180 5180 5180 5181 5182 5183 5185 5187 5189 5192 5195 5199 5203 5207 5211 5216 5220 5225 5230 5234 5239 5244 5248 5252 5257 5261 5265 5269 5273 5277 5281
5251 5249 5246 5244 5241 5239 5237 5235 5233 5230 5228 5226 5224 5222 5219 5218 5216 5215 5214 5213 5212 5210 5209 5208 5207 5205 5204 5203 5201 5200 5198 5196 5195 5193 5191 5190 5190 5189 5188 5186 5185 5184 5184 5183 5183 5182 5181 5181 5180 5180 5180 5181 5180 5180 5180 5179 5179 5180 5181 5182 5184 5185 5187 5189 5192 5195 5199 5202 5206 5210 5214 5219 5224 5228 5232 5237 5241 5245 5249 5254 5257 5261 5265 5269 5274 5278
5250 5248 5245 5243 5240 5238 5236 5234 5232 5230 5228 5226 5223 5221 5219 5217 5216 5214 5213 5212 5211 5209 5208 5207 5205 5204 5203 5201 5200 5199 5198 5196 5194 5192 5190 5190 5189 5188 5187 5185 5184 5183 5182 5182 5182 5181 5181 5180 5180 5179 5179 5180 5180 5179 5179 5179 5179 5180 5181 5183 5184 5185 5187 5189 5192 5195 5198 5202 5205 5209 5213 5217 5221 5226 5230 5234 5238 5242 5246 5250 5254 5258 5262 5266 5271 5275
5249 5247 5244 5242 5240 5238 5235 5233 5231 5229 5227 5225 5223 5221 5219 5217 5215 5214 5212 5211 5210 5208 5207 5206 5204 5203 5202 5200 5199 5199 5197 5195 5193 5191 5189 5189 5188 5187 5186 5185 5184 5183 5182 5181 5181 5181 5180 5179 5179 5179 5179 5179 5179 5179 5179 5179 5179 5180 5182 5183 5184 5186 5188 5190 5192 5195 5198 5201 5204 5208 5211 5215 5219 5223 5227 5231 5235 5239 5243 5247 5251 5255 5259 5263 5268 5272
5248 5246 5244 5241 5239 5237 5234 5232 5230 5228 5226 5224 5222 5220 5218 5216 5214 5213 5211 5210 5209 5207 5206 5204 5203 5202 5201 5200 5199 5197 5196 5194 5192 5190 5189 5188 5187 5187 5185 5184 5183 5182 5181 5180 5180 5180 5179 5179 5179 5178 5178 5178 5178 5178 5178 5179 5180 5181 5182 5184 5185 5186 5188 5190 5192 5194 5197 5200 5203 5207 5210 5214 5217 5221 5224 5228 5232 5236 5240 5244 5248 5252 5256 5260 5264 5268
5247 5244 5242 5240 5238 5235 5233 5231 5229 5227 5225 5223 5221 5219 5218 5216 5214 5212 5210 5209 5208 5206 5204 5203 5202 5201 5200 5199 5198 5196 5195 5193 5191 5190 5188 5188 5187 5186 5185 5184 5183 5182 5181 5180 5179 5179 5179 5179 5179 5178 5178 5178 5178 5178 5179 5179 5180 5182 5183 5184 5185 5186 5188 5190 5192 5194 5197 5200 5203 5205 5209 5212 5215 5219 5222 5226 5229 5233 5237 5241 5244 5249 5253 5257 5261 5265
5246 5243 5241 5239 5236 5234 5232 5230 5228 5226 5224 5222 5220 5218 5217 5215 5213 5212 5210 5208 5206 5205 5204 5202 5201 5199 5199 5198 5197 5195 5194 5192 5190 5189 5188 5187 5187 5186 5184 5184 5182 5181 5180 5179 5179 5179 5178 5178 5178 5178 5178 5178 5178 5178 5179 5180 5181 5182 5183 5184 5185 5187 5189 5190 5192 5194 5197 5199 5202 5204 5208 5210 5214 5217 5220 5224 5227 5231 5234 5238 5242 5246 5250 5254 5258 5262
5244 5242 5239 5237 5235 5233 5231 5229 5227 5224 5223 5221 5219 5217 5215 5214 5212 5211 5209 5207 5206 5204 5203 5201 5200 5199 5198 5197 5196 5194 5193 5192 5190 5188 5187 5187 5186 5185 5184 5183 5182 5181 5180 5179 5179 5179 5178 5178 5178 5178 5178 5178 5178 5179 5180 5181 5182 5183 5183 5184 5186 5187 5189 5190 5192 5194 5197 5199 5201 5204 5207 5209 5213 5216 5219 5222 5225 5229 5233 5236 5240 5244 5248 5252 5256 5260
5242 5239 5237 5235 5233 5231 5229 5227 5225 5223 5221 5219 5218 5216 5214 5213 5211 5210 5208 5206 5205 5204 5202 5201 5199 5198 5197 5196 5195 5194 5192 5191 5189 5188 5187 5187 5186 5185 5184 5183 5181 5180 5180 5179 5179 5178 5178 5178 5178 5178 5178 5179 5179 5179 5180 5181 5182 5183 5184 5185 5186 5188 5189 5191 5193 5194 5197 5199 5201 5204 5207 5209 5212 5215 5218 5221 5224 5228 5231 5234 5238 5242 5245 5249 5253 5257
5239 5237 5235 5233 5230 5229 5227 5225 5223 5221 5219 5218 5216 5215 5213 5212 5210 5209 5207 5206 5204 5203 5201 5200 5199 5197 5196 5195 5194 5193 5192 5190 5189 5188 5187 5186 5186 5185 5184 5183 5181 5181 5180 5180 5179 5178 5178 5178 5178 5178 5178 5179 5179 5180 5181 5181 5182 5183 5184 5185 5187 5188 5189 5191 5193 5195 5197 5199 5201 5204 5207 5209 5212 5215 5218 5220 5224 5227 5230 5234 5237 5240 5244 5248 5252 5255
5237 5235 5233 5231 5229 5227 5225 5223 5222 5220 5219 5217 5216 5214 5213 5211 5210 5208 5207 5205 5204 5203 5201 5200 5199 5197 5196 5194 5193 5192 5191 5190 5189 5188 5187 5187 5186 5185 5184 5183 5182 5181 5181 5180 5179 5179 5179 5179 5179 5179 5179 5179 5180 5181 5181 5182 5183 5184 5184 5186 5187 5189 5190 5192 5193 5195 5197 5199 5202 5204 5207 5209 5212 5214 5217 5220 5223 5226 5229 5233 5236 5240 5243 5247 5251 5254
5236 5234 5231 5229 5227 5226 5224 5222 5221 5219 5218 5216 5215 5214 5212 5211 5209 5208 5206 5205 5204 5202 5201 5200 5199 5197 5196 5194 5193 5192 5191 5190 5189 5189 5188 5187 5186 5185 5185 5184 5183 5182 5181 5180 5180 5179 5180 5180 5180 5180 5180 5180 5181 5181 5182 5183 5183 5184 5185 5186 5188 5189 5191 5192 5194 5196 5198 5200 5202 5204 5207 5209 5212 5215 5217 5220 5223 5226 5229 5233 5236 5239 5243 5247 5250 5254
5235 5233 5231 5229 5227 5225 5223 5222 5220 5219 5218 5216 5215 5213 5212 5211 5209 5208 5206 5204 5203 5202 5201 5199 5198 5197 5196 5195 5194 5193 5192 5191 5190 5189 5188 5187 5187 5186 5185 5184 5184 5182 5182 5181 5181 5181 5181 5181 5180 5180 5181 5181 5181 5182 5183 5183 5184 5185 5186 5187 5189 5190 5191 5193 5195 5197 5199 5201 5203 5205 5208 5210 5213 5215 5218 5220 5224 5227 5230 5233 5236 5240 5244 5247 5250 5254
5234 5232 5230 5229 5227 5225 5224 5222 5220 5219 5217 5216 5215 5214 5212 5211 5210 5208 5207 5205 5204 5202 5201 5200 5199 5197 5196 5195 5194 5193 5192 5191 5190 5189 5189 5188 5187 5186 5186 5185 5184 5184 5183 5183 5182 5182 5182 5181 5181 5181 5182 5182 5182 5183 5184 5184 5185 5186 5187 5188 5189 5190 5192 5194 5196 5198 5200 5202 5204 5206 5209 5211 5213 5215 5218 5221 5224 5227 5230 5234 5237 5240 5244 5247 5250 5253
5234 5232 5230 5229 5227 5225 5224 5222 5220 5219 5218 5216 5215 5214 5213 5212 5210 5209 5207 5206 5204 5203 5202 5200 5199 5198 5197 5196 5195 5194 5193 5192 5191 5190 5189 5189 5188 5187 5187 5186 5186 5185 5185 5184 5183 5183 5183 5183 5183 5183 5183 5183 5184 5184 5184 5185 5186 5187 5188 5189 5190 5191 5193 5195 5197 5199 5201 5203 5205 5207 5209 5211 5214 5216 5219 5222 5225 5228 5231 5234 5238 5241 5244 5247 5250 5254
5234 5232 5231 5229 5227 5226 5224 5223 5221 5220 5219 5217 5216 5215 5214 5212 5211 5209 5208 5206 5205 5204 5202 5201 5200 5199 5197 5196 5195 5195 5194 5193 5192 5191 5190 5189 5189 5189 5188 5187 5186 5186 5185 5184 5184 5184 5184 5184 5184 5184 5184 5184 5185 5185 5186 5187 5187 5188 5189 5190 5191 5193 5194 5196 5197 5199 5201 5204 5206 5208 5210 5212 5215 5217 5220 5223 5226 5229 5232 5235 5238 5241 5244 5248 5250 5254
5234 5233 5231 5229 5228 5227 5225 5224 5222 5221 5219 5218 5217 5215 5214 5213 5211 5210 5209 5207 5206 5205 5204 5202 5201 5200 5199 5197 5196 5196 5195 5194 5193 5192 5192 5191 5190 5189 5189 5188 5187 5187 5186 5186 5186 5185 5185 5185 5185 5185 5185 5186 5186 5187 5187 5188 5189 5189 5190 5192 5193 5194 5195 5197 5199 5200 5202 5204 5206 5209 5211 5214 5216 5219 5221 5224 5227 5230 5233 5235 5239 5241 5244 5248 5250 5253
5235 5233 5232 5230 5229 5227 5226 5224 5223 5222 5221 5219 5218 5216 5215 5214 5212 5211 5210 5209 5207 5206 5205 5204 5202 5201 5200 5199 5198 5197 5196 5195 5194 5194 5193 5192 5191 5190 5189 5189 5189 5188 5188 5188 5187 5187 5187 5186 5187 5187 5187 5187 5188 5188 5189 5189 5190 5191 5192 5193 5194 5195 5196 5198 5200 5202 5203 5205 5207 5210 5212 5214 5217 5219 5222 5225 5228 5230 5233 5236 5239 5242 5245 5248 5250 5253
5236 5234 5233 5231 5229 5228 5227 5226 5224 5223 5222 5220 5219 5218 5216 5215 5214 5212 5211 5210 5209 5207 5206 5205 5204 5203 5202 5201 5199 5199 5197 5196 5195 5195 5194 5193 5192 5191 5191 5190 5190 5189 5189 5189 5189 5189 5188 5188 5188 5188 5189 5189 5189 5189 5190 5190 5191 5192 5193 5194 5195 5196 5198 5199 5201 5203 5204 5207 5209 5211 5213 5216 5218 5220 5223 5226 5228 5231 5234 5237 5239 5242 5245 5248 5250 5253
5236 5235 5233 5232 5230 5229 5228 5227 5225 5224 5223 5221 5220 5219 5217 5216 5215 5214 5212 5211 5209 5208 5207 5206 5205 5204 5203 5202 5201 5200 5199 5198 5197 5196 5195 5195 5194 5193 5192 5192 5191 5190 5190 5190 5190 5190 5190 5190 5190 5190 5190 5190 5191 5191 5191 5192 5193 5194 5194 5195 5196 5198 5199 5201 5202 5204 5206 5208 5210 5212 5215 5217 5219 5221 5224 5227 5229 5232 5235 5238 5240 5243 5245 5248 5250 5253
5237 5235 5234 5233 5231 5230 5229 5228 5226 5225 5224 5222 5221 5220 5219 5217 5216 5214 5213 5212 5210 5209 5208 5207 5206 5205 5204 5203 5202 5201 5200 5199 5199 5198 5197 5196 5196 5195 5194 5193 5193 5192 5191 5191 5191 5191 5191 5191 5191 5192 5192 5192 5193 5193 5193 5194 5194 5195 5196 5197 5198 5199 5200 5202 5204 5206 5208 5209 5212 5214 5216 5218 5220 5223 5225 5228 5230 5233 5236 5238 5241 5243 5245 5248 5250 5253
5238 5236 5235 5234 5232 5231 5229 5228 5227 5226 5224 5223 5222 5221 5219 5219 5217 5216 5214 5213 5212 5211 5210 5209 5208 5206 5205 5204 5203 5202 5201 5200 5200 5199 5199 5198 5197 5197 5196 5195 5194 5194 5193 5193 5192 5192 5192 5192 5192 5193 5194 5194 5194 5194 5194 5195 5195 5196 5197 5198 5199 5201 5202 5204 5205 5207 5209 5211 5213 5215 5218 5220 5222 5224 5227 5229 5232 5234 5236 5239 5241 5244 5246 5248 5250 5253
5238 5237 5236 5234 5233 5231 5230 5229 5227 5226 5225 5224 5223 5221 5220 5219 5218 5216 5215 5214 5213 5212 5211 5210 5209 5207 5206 5205 5204 5203 5202 5201 5200 5200 5199 5199 5199 5198 5198 5197 5196 5195 5195 5194 5194 5194 5194 5194 5194 5194 5194 5194 5195 5195 5196 5196 5197 5198 5199 5200 5201 5202 5204 5205 5207 5209 5210 5213 5215 5217 5219 5221 5224 5226 5228 5230 5233 5235 5237 5239 5241 5244 5246 5249 5251 5254
5239 5238 5236 5235 5234 5232 5230 5229 5228 5227 5225 5224 5223 5222 5221 5220 5219 5217 5216 5215 5214 5213 5212 5211 5210 5209 5207 5206 5205 5204 5203 5202 5201 5200 5200 5200 5199 5199 5199 5199 5198 5197 5197 5196 5195 5195 5195 5195 5195 5195 5195 5196 5196 5197 5197 5198 5199 5199 5200 5201 5202 5204 5205 5207 5209 5210 5212 5214 5217 5219 5221 5223 5225 5228 5230 5232 5234 5236 5238 5240 5242 5244 5247 5249 5252 5254